Location: Cahas Mountain Overlook
(37.0833°N, 80.1000°W)
Time: 11:23:24
(UTC-04:00)

A-11 Canister half - Pass Details

Date: 17 February 2026
Orbit: 1524 x 1683 km, 47.3° (Epoch: 16 March)

Event Time Altitude Azimuth Distance (km) Brightness Sun altitude
Rises 18:19:10 0° 264° (W) 4,708 14.3 -4.1°
Reaches altitude 10° 18:22:23 10° 270° (W) 3,711 12.8 -4.7°
Maximum altitude 18:31:24 51° 345° (NNW) 1,848 9.5 -6.4°
Drops below altitude 10° 18:40:25 10° 60° (ENE) 3,698 10.4 -8.2°
Enters shadow 18:41:19 - 62° (ENE) 3,969 10.6 -8.4°
